Location: Muck Cross
(36.7179°N, 78.3678°W)
Time: 12:28:34
(UTC+00:00)

Vanguard 2 Rocket - All Passes

Search period start: 30 March 2023 00:00
Search period end: 09 April 2023 00:00
Orbit: 555 x 3315 km, 32.9° (Epoch: 30 March)

Date Brightness Start Highest point End Pass type
(mag) Time Alt. Az. Time Alt. Az. Time Alt. Az.
30 Mar - 00:47:29 10° WSW 00:53:34 68° S 01:04:30 10° E visible
30 Mar - 02:59:31 10° W 03:07:54 61° SSW 03:22:48 10° ESE visible
30 Mar - 05:12:57 10° W 05:23:27 37° SSW 05:39:05 10° SSE visible
30 Mar - 07:32:17 10° WSW 07:39:38 14° SW 07:47:57 10° SSW visible
30 Mar - 21:37:21 10° SSW 21:40:33 20° SSE 21:44:34 10° E daylight
30 Mar - 23:47:30 10° WSW 23:52:39 59° SSE 00:01:23 10° E visible
31 Mar - 01:59:11 10° W 02:06:18 65° S 02:19:12 10° ESE visible
31 Mar - 04:11:52 10° W 04:21:14 43° SSW 04:36:26 10° SE visible
31 Mar - 06:27:53 10° WSW 06:37:08 20° SW 06:48:51 10° S night (unlit)
31 Mar - 22:47:39 10° SW 22:52:02 45° SSE 22:58:45 10° E daylight
01 Apr - 00:59:02 10° W 01:05:02 67° S 01:15:47 10° ESE visible
01 Apr - 03:11:11 10° W 03:19:19 50° SSW 03:33:21 10° SE visible
01 Apr - 05:25:24 10° W 05:34:46 26° SSW 05:47:53 10° SSE visible
01 Apr - 21:47:59 10° SW 21:51:38 29° SSE 21:56:30 10° E daylight
01 Apr - 23:58:58 10° WSW 00:04:03 64° S 00:12:44 10° E visible
02 Apr - 02:10:48 10° W 02:17:44 56° SSW 02:30:05 10° ESE visible
02 Apr - 04:23:54 10° W 04:32:36 32° SSW 04:45:55 10° SSE visible
02 Apr - 06:43:44 10° SW 06:48:28 12° SW 06:53:45 10° SSW night (unlit)
02 Apr - 20:48:41 10° SSW 20:51:22 17° SSE 20:54:22 10° ESE daylight
02 Apr - 22:58:58 10° WSW 23:03:21 55° SSE 23:10:10 10° E daylight
03 Apr - 01:10:35 10° W 01:16:28 60° S 01:26:53 10° ESE visible
03 Apr - 03:22:59 10° W 03:30:43 38° SSW 03:43:23 10° SE visible
03 Apr - 05:38:56 10° WSW 05:46:07 17° SSW 05:55:15 10° S night (unlit)
03 Apr - 21:59:01 10° SW 22:02:52 40° SSE 22:08:05 10° E daylight
04 Apr - 00:10:28 10° W 00:15:29 62° S 00:23:58 10° ESE visible
04 Apr - 02:22:27 10° W 02:29:08 44° SSW 02:40:35 10° SE visible
04 Apr - 04:36:31 10° WSW 04:43:59 22° SSW 04:54:28 10° SSE visible
04 Apr - 20:59:09 10° SW 21:02:30 27° SSE 21:06:22 10° E daylight
04 Apr - 23:10:22 10° WSW 23:14:44 59° S 23:21:30 10° E daylight
05 Apr - 01:22:08 10° W 01:27:52 49° SSW 01:37:43 10° ESE visible
05 Apr - 03:35:07 10° WSW 03:42:07 27° SSW 03:52:44 10° SSE visible
05 Apr - 19:59:30 10° SSW 20:02:07 17° SSE 20:04:46 10° ESE daylight
05 Apr - 22:10:15 10° WSW 22:14:11 50° S 22:19:30 10° E daylight
06 Apr - 00:21:57 10° W 00:26:53 54° S 00:35:03 10° ESE visible
06 Apr - 02:34:17 10° W 02:40:32 32° SSW 02:50:32 10° SE visible
06 Apr - 04:50:44 10° SW 04:55:25 13° SSW 05:01:04 10° S night (unlit)
06 Apr - 19:01:03 10° SSE 19:01:36 10° SSE 19:02:09 10° SSE daylight
06 Apr - 21:10:04 10° SW 21:13:44 38° SSE 21:17:58 10° E daylight
06 Apr - 23:21:48 10° W 23:26:07 57° S 23:32:43 10° ESE daylight
07 Apr - 01:33:48 10° W 01:39:15 37° SSW 01:48:10 10° SE visible
07 Apr - 03:48:02 10° WSW 03:53:33 17° SSW 04:00:56 10° S visible
07 Apr - 20:09:51 10° SW 20:13:19 26° SSE 20:16:44 10° ESE daylight
07 Apr - 22:21:34 10° WSW 22:25:31 55° S 22:30:49 10° E daylight
08 Apr - 00:33:29 10° W 00:38:15 42° SSW 00:45:51 10° SE visible
08 Apr - 02:46:34 10° WSW 02:51:58 22° SSW 02:59:41 10° SSE visible
08 Apr - 19:09:39 10° SSW 19:12:49 19° SSE 19:15:39 10° ESE daylight
08 Apr - 21:21:14 10° WSW 21:25:00 47° S 21:29:21 10° E daylight
08 Apr - 23:33:14 10° W 23:37:27 47° S 23:43:45 10° ESE daylight
